Tracking 25370 objects as of 25-Jan-2022
HD Live streaming from Space Station
objects crossing your sky now

STARLINK-2031

Track STARLINK-2031 now!
10-day predictions
STARLINK-2031 is classified as:


NORAD ID: 47648
Int'l Code: 2021-012AE
Perigee: 553.1 km
Apogee: 555.6 km
Inclination: 53.1 °
Period: 95.6 minutes
Semi major axis: 6925 km
RCS: Unknown
Launch date: February 16, 2021
Source: United States (US)
Launch site: AIR FORCE EASTERN TEST RANGE (AFETR)
aabbcc
Your satellite tracking list
Your tracking list is empty




NASA's NSSDC Master Catalog

Two Line Element Set (TLE):
1 47648U 21012AE  22025.15198569 -.00002183  00000-0 -12770-3 0  9996
2 47648  53.0563 325.7549 0001829  56.5119 303.6044 15.06395421 52985
Source of the keplerian elements: AFSPC